STARLINK-6203, 56899

Orbit data source: Space-Track

STARLINK-6203, 56899 is a payload satellite owned by SpaceX/Seattle (US) in LEO that was launched on Mon, 12 Jun 2023 UTC via an FALCON 9 launch vehicle from the Air Force Eastern Test Range (AFETR). Payload-class satellites include a variety of spacecraft equipped with specific instruments for various scientific and technological missions. These include communications satellites like Starlink; space stations such as the ISS; scientific satellites like the Hubble; Earth observation satellites from companies like Planet Labs, Umbra, and HawkEye 360; GPS; miniature CubeSats for education and research; and military/defense satellites.

Loading next visibility...
Identifier
56899, 2023-083Z
Orbit
LEO
Country
Flag of USUS
Related business
Manufacturer
SpaceX/Seattle
Mission
Operational Commercial Communications
Bus & Motor
STARLINK, Unknown motor
Mass
305 kg wet, ~290 kg dry
Launch date (UTC)
2023-06-12 (3 years ago)
Launch vehicle
FALCON 9
Launch site
Air Force Eastern Test Range (AFETR)
Object type
Payload
Rocket body
Debris
Shape & HBR
Box + 1 Pan, 10.1 m
Radar Cross Section
11.087 m², Large (>1 m²)

Expand to show TLE details & history
Last TLE update: 2 days ago

TLE from 2 days ago
0 STARLINK-6203
1 56899U 23083Z   26171.40738696  .00000368  00000-0  22892-4 0  9997
2 56899  43.0025 221.3548 0001442 271.4051  88.6635 15.27574739167481
Epoch: 2026-06-20T09:46Z
TLE epoch observation values (Epoch: 2026-06-20T09:46:38.233Z)
Latitude
-0.00005°
Longitude
166.073°
Altitude
482.818 km
Speed
7.626 km/s
True Right ascension
14h 45m 25s
True Declination
0° 00' 00"
Sunlit
Object was in full shadow at epoch
Visualization orbit readout
Latitude
Unknown
Longitude
Unknown
Altitude
Unknown
Speed
Unknown
Apparent Right ascension
Unknown
Apparent Declination
Unknown
Sunlit
N/A
Visualization observer readout
Local Sidereal Time
21:28:29
Azimuth
Unknown
Elevation
Unknown
Doppler factor
Unknown
Orbital elements
Apogee altitude
485.999 km
Perigee altitude
484.02 km
Semi-major axis
6,863.147 km
Eccentricity
0.00014
Inclination
43.0025°
RAAN
221.3548°
Arg. of periapsis
271.4051°
True anomaly
88.68002°
Mean anomaly
88.6635°
Eccentric anomaly
88.67176°
Mean motion
3.81732 °/min
Orbital period
94.31 mins
BSTAR
0.000022892
Loading maneuver chart data...
Computing Atmospheric mass density...
Loading historical data...
Loading historical data...
Loading historical data...
Loading historical data...
Loading historical data...
Loading historical data...
Loading historical data...

Documentation

Showing up to 5 results
|